When you browse on this site, cookies collect data to enhance your experience and personalize the content and advertising you see.
Visit our Privacy Policy to learn more. By continuing to use the site, you agree to this use of cookies and data.
EN

Hourly Weather Slavyanogorsk

Today, 12 July, Sunday

Time Temperature Precipitation Wind Pressure Humidity
00:00 +19°C° 0 mm 3 mps 755 mmHg 70%
01:00 +19°C° 0 mm 3 mps 755 mmHg 72%
02:00 +18°C° 0 mm 3 mps 755 mmHg 75%
03:00 +18°C° 0 mm 2 mps 755 mmHg 77%
04:00 +18°C° 0 mm 2 mps 754 mmHg 77%
05:00 +18°C° 0 mm 2 mps 754 mmHg 78%
06:00 +18°C° 0 mm 2 mps 754 mmHg 78%
07:00 +21°C° 0 mm 3 mps 754 mmHg 71%
08:00 +24°C° 0 mm 3 mps 753 mmHg 64%
09:00 +26°C° 0 mm 4 mps 753 mmHg 55%
10:00 +28°C° 0 mm 4 mps 753 mmHg 53%
11:00 +29°C° 0 mm 4 mps 752 mmHg 51%
12:00 +32°C° 0 mm 4 mps 752 mmHg 49%
13:00 +33°C° 0 mm 4 mps 752 mmHg 48%
14:00 +33°C° 0 mm 4 mps 751 mmHg 48%
15:00 +34°C° 0 mm 4 mps 751 mmHg 45%
16:00 +34°C° 0 mm 4 mps 751 mmHg 48%
17:00 +33°C° 0 mm 4 mps 750 mmHg 50%
18:00 +33°C° 0 mm 4 mps 750 mmHg 53%
19:00 +30°C° 0.5 mm 4 mps 750 mmHg 59%
20:00 +28°C° 0.5 mm 5 mps 750 mmHg 65%
21:00 +26°C° 0.5 mm 5 mps 750 mmHg 71%
22:00 +25°C° 2 mm 4 mps 749 mmHg 77%
23:00 +22°C° 2 mm 3 mps 749 mmHg 82%

Tomorrow, 13 July, Monday

Time Temperature Precipitation Wind Pressure Humidity
00:00 +21°C° 2 mm 2 mps 749 mmHg 88%
01:00 +20°C° 0.4 mm 2 mps 749 mmHg 89%
02:00 +20°C° 0.4 mm 2 mps 748 mmHg 90%
03:00 +20°C° 0.4 mm 2 mps 748 mmHg 91%
04:00 +20°C° 0 mm 2 mps 748 mmHg 90%
05:00 +20°C° 0 mm 2 mps 747 mmHg 89%
06:00 +20°C° 0 mm 2 mps 747 mmHg 88%
07:00 +23°C° 0 mm 2 mps 747 mmHg 81%
08:00 +25°C° 0 mm 3 mps 747 mmHg 75%
09:00 +26°C° 0 mm 3 mps 747 mmHg 68%
10:00 +28°C° 0 mm 2 mps 747 mmHg 63%
11:00 +29°C° 0 mm 2 mps 747 mmHg 58%
12:00 +30°C° 0 mm 2 mps 746 mmHg 53%
13:00 +30°C° 0.1 mm 2 mps 746 mmHg 54%
14:00 +30°C° 0.1 mm 2 mps 746 mmHg 55%
15:00 +30°C° 0.1 mm 2 mps 746 mmHg 55%
16:00 +29°C° 1.5 mm 2 mps 746 mmHg 61%
17:00 +28°C° 1.5 mm 3 mps 745 mmHg 67%
18:00 +26°C° 1.5 mm 3 mps 745 mmHg 72%
19:00 +25°C° 0.3 mm 3 mps 745 mmHg 77%
20:00 +24°C° 0.3 mm 3 mps 745 mmHg 81%
21:00 +21°C° 0.3 mm 3 mps 746 mmHg 86%
22:00 +21°C° 0 mm 2 mps 745 mmHg 87%
23:00 +21°C° 0 mm 1 mps 745 mmHg 89%

Day after tomorrow, 14 July, Tuesday

Time Temperature Precipitation Wind Pressure Humidity
00:00 +19°C° 0 mm 0 mps 745 mmHg 90%
01:00 +21°C° 0 mm 1 mps 745 mmHg 92%
02:00 +19°C° 0 mm 2 mps 745 mmHg 94%
03:00 +19°C° 0 mm 2 mps 745 mmHg 95%
04:00 +19°C° 0 mm 3 mps 745 mmHg 95%
05:00 +19°C° 0 mm 3 mps 745 mmHg 95%
06:00 +19°C° 0 mm 4 mps 745 mmHg 94%
07:00 +19°C° 0 mm 4 mps 745 mmHg 92%
08:00 +19°C° 0 mm 4 mps 745 mmHg 89%
09:00 +19°C° 0 mm 4 mps 746 mmHg 87%
10:00 +20°C° 0 mm 4 mps 746 mmHg 84%
11:00 +20°C° 0 mm 4 mps 746 mmHg 81%
12:00 +21°C° 0 mm 4 mps 746 mmHg 78%
13:00 +22°C° 0 mm 5 mps 746 mmHg 75%
14:00 +22°C° 0 mm 5 mps 746 mmHg 73%
15:00 +23°C° 0 mm 6 mps 746 mmHg 70%
16:00 +22°C° 0.1 mm 6 mps 746 mmHg 72%
17:00 +21°C° 0.1 mm 6 mps 746 mmHg 74%
18:00 +21°C° 0.1 mm 6 mps 746 mmHg 76%
19:00 +20°C° 0.1 mm 5 mps 747 mmHg 80%
20:00 +19°C° 0.1 mm 5 mps 747 mmHg 83%
21:00 +18°C° 0.1 mm 4 mps 748 mmHg 86%
22:00 +17°C° 0 mm 4 mps 748 mmHg 88%
23:00 +16°C° 0 mm 5 mps 748 mmHg 89%

15 July, Wednesday

Time Temperature Precipitation Wind Pressure Humidity
00:00 +15°C° 0 mm 5 mps 748 mmHg 90%
01:00 +15°C° 0 mm 5 mps 748 mmHg 89%
02:00 +15°C° 0 mm 5 mps 748 mmHg 88%
03:00 +15°C° 0 mm 5 mps 748 mmHg 87%
04:00 +15°C° 0 mm 6 mps 748 mmHg 88%
05:00 +15°C° 0 mm 6 mps 749 mmHg 89%
06:00 +16°C° 0 mm 6 mps 749 mmHg 89%
07:00 +16°C° 0 mm 6 mps 749 mmHg 87%
08:00 +17°C° 0 mm 6 mps 750 mmHg 84%
09:00 +17°C° 0 mm 7 mps 750 mmHg 82%
10:00 +20°C° 0.1 mm 7 mps 750 mmHg 73%
11:00 +22°C° 0.1 mm 7 mps 750 mmHg 64%
12:00 +24°C° 0.1 mm 7 mps 751 mmHg 55%
13:00 +24°C° 0.1 mm 7 mps 751 mmHg 52%
14:00 +24°C° 0.1 mm 7 mps 751 mmHg 49%
15:00 +26°C° 0.1 mm 7 mps 751 mmHg 46%
16:00 +24°C° 0 mm 6 mps 751 mmHg 48%
17:00 +25°C° 0 mm 5 mps 752 mmHg 51%
18:00 +23°C° 0 mm 4 mps 752 mmHg 53%
19:00 +22°C° 0 mm 4 mps 752 mmHg 58%
20:00 +20°C° 0 mm 3 mps 752 mmHg 63%
21:00 +19°C° 0 mm 3 mps 752 mmHg 68%
22:00 +18°C° 0 mm 3 mps 752 mmHg 71%
23:00 +17°C° 0 mm 2 mps 752 mmHg 75%

16 July, Thursday

Time Temperature Precipitation Wind Pressure Humidity
00:00 +16°C° 0 mm 2 mps 752 mmHg 78%
01:00 +16°C° 0 mm 2 mps 753 mmHg 80%
02:00 +16°C° 0 mm 2 mps 753 mmHg 82%
03:00 +15°C° 0 mm 2 mps 753 mmHg 85%
04:00 +15°C° 0 mm 2 mps 753 mmHg 84%
05:00 +16°C° 0 mm 2 mps 752 mmHg 83%
06:00 +16°C° 0 mm 2 mps 752 mmHg 82%
07:00 +18°C° 0 mm 2 mps 752 mmHg 74%
08:00 +20°C° 0 mm 2 mps 753 mmHg 65%
09:00 +22°C° 0 mm 3 mps 753 mmHg 56%
10:00 +24°C° 0 mm 3 mps 753 mmHg 52%
11:00 +25°C° 0 mm 3 mps 752 mmHg 48%
12:00 +26°C° 0 mm 4 mps 752 mmHg 44%
13:00 +27°C° 0 mm 4 mps 752 mmHg 43%
14:00 +27°C° 0 mm 4 mps 752 mmHg 42%
15:00 +27°C° 0 mm 4 mps 752 mmHg 42%
16:00 +27°C° 0 mm 3 mps 752 mmHg 43%
17:00 +27°C° 0 mm 3 mps 752 mmHg 45%
18:00 +26°C° 0 mm 3 mps 751 mmHg 46%
19:00 +24°C° 0 mm 2 mps 752 mmHg 51%
20:00 +22°C° 0 mm 1 mps 752 mmHg 57%
21:00 +20°C° 0 mm 1 mps 752 mmHg 62%
22:00 +20°C° 0 mm 1 mps 752 mmHg 64%
23:00 +19°C° 0 mm 1 mps 752 mmHg 67%

17 July, Friday

Time Temperature Precipitation Wind Pressure Humidity
00:00 +19°C° 0 mm 1 mps 752 mmHg 69%
01:00 +18°C° 0 mm 1 mps 752 mmHg 71%
02:00 +16°C° 0 mm 0 mps 752 mmHg 72%
03:00 +15°C° 0 mm 0 mps 752 mmHg 74%
04:00 +16°C° 0 mm 0 mps 752 mmHg 73%
05:00 +16°C° 0 mm 0 mps 752 mmHg 73%
06:00 +18°C° 0 mm 1 mps 752 mmHg 73%
07:00 +20°C° 0 mm 1 mps 752 mmHg 67%
08:00 +22°C° 0 mm 1 mps 752 mmHg 60%
09:00 +24°C° 0 mm 1 mps 752 mmHg 54%
10:00 +26°C° 0 mm 1 mps 752 mmHg 50%
11:00 +27°C° 0 mm 1 mps 752 mmHg 47%
12:00 +28°C° 0 mm 1 mps 752 mmHg 44%
13:00 +28°C° 0 mm 1 mps 752 mmHg 43%
14:00 +28°C° 0 mm 1 mps 752 mmHg 42%
15:00 +28°C° 0 mm 1 mps 751 mmHg 42%
16:00 +28°C° 0 mm 1 mps 751 mmHg 42%
17:00 +28°C° 0 mm 1 mps 751 mmHg 43%
18:00 +28°C° 0 mm 1 mps 751 mmHg 44%
19:00 +26°C° 0 mm 1 mps 751 mmHg 48%
20:00 +25°C° 0 mm 1 mps 751 mmHg 53%
21:00 +23°C° 0 mm 1 mps 752 mmHg 57%
22:00 +22°C° 0 mm 1 mps 752 mmHg 59%
23:00 +22°C° 0 mm 1 mps 752 mmHg 61%
Show more